Temperature
14 14 15 15 18 18 19 19 19 19 19 18 18 19 20 21 21 20 16 15 15 15 15 15 15 15 15 15 15 15 15 15 15 15 15 15 15 15 15 15 15 15 15 15 15 15 15 15 15
13 14 14 16 18 19 19 19 18 19 18 16 17 17 18 19 17 16 15 15 15 14 14 14 15 15 15 15 15 15 15 15 15 15 15 15 15 15 15 15 15 15 15 15 15 15 15 15 14
13 14 14 17 18 19 19 18 18 17 16 16 17 17 18 18 15 14 14 15 14 14 14 14 15 15 15 15 15 15 15 14 15 15 15 15 15 15 15 15 15 15 15 15 15 15 15 14 14
13 13 15 16 17 18 18 18 17 17 16 16 16 17 16 14 14 14 15 14 14 14 14 14 14 15 15 15 15 15 15 14 14 14 14 14 15 15 15 15 15 14 14 15 15 14 14 14 14
13 14 16 16 16 17 17 16 15 17 17 16 16 17 16 14 14 14 14 14 14 14 14 14 14 14 14 14 14 14 14 14 14 14 14 14 14 14 15 14 14 14 14 14 14 14 14 14 14
13 15 16 16 16 16 16 15 15 16 16 15 15 16 15 13 13 13 13 13 13 13 13 14 14 14 14 14 14 14 14 14 14 14 14 14 14 14 14 14 14 14 14 14 14 14 14 14 14
13 15 15 16 15 15 15 14 15 16 16 15 14 15 15 13 13 13 13 13 13 13 13 13 13 14 14 14 14 14 14 14 14 14 14 14 14 14 14 14 14 14 14 14 14 14 14 14 14
12 14 14 14 14 15 14 13 13 14 15 13 13 15 15 13 12 12 12 12 13 13 13 13 13 13 13 13 13 13 13 13 13 14 14 14 14 14 14 14 14 14 14 14 14 14 14 14 14
11 13 14 14 14 14 13 13 13 12 13 12 12 13 13 12 12 12 12 12 12 12 13 13 13 13 13 13 13 13 13 13 13 13 13 13 14 14 14 14 14 14 14 14 14 14 14 14 14
11 13 14 14 13 13 13 12 12 12 13 13 12 12 12 12 12 11 11 12 12 12 12 12 13 13 12 12 13 12 12 13 13 13 13 13 13 13 13 14 14 14 14 14 14 14 13 13 13
11 12 13 12 12 12 12 12 11 12 13 13 13 12 11 11 11 11 11 11 11 12 12 12 12 12 12 12 12 12 12 12 12 13 13 13 13 13 13 13 13 13 13 13 13 13 13 13 13
11 11 11 11 10 10 11 11 11 12 12 12 12 11 11 11 11 11 11 11 11 11 12 12 12 12 12 12 12 12 12 12 12 13 13 13 13 13 13 13 13 13 13 13 13 13 13 13 12
11 11 10 10 10 10 10 10 11 11 11 11 10 10 10 10 10 10 11 11 11 11 11 12 12 12 12 12 12 12 12 12 12 12 13 13 13 13 13 13 13 13 13 13 13 12 12 12 12
11 10 10 10 10 10 10 11 10 11 11 10 10 10 10 10 10 10 11 11 11 11 11 11 11 11 12 12 12 12 12 12 12 12 12 12 12 12 13 13 12 12 12 12 12 12 12 12 12
9 10 11 11 10 10 10 11 11 11 10 10 10 10 10 10 10 10 10 10 11 11 11 11 11 11 11 11 11 12 12 12 12 12 12 12 12 12 12 12 12 12 12 12 12 12 12 12 12
11 11 11 12 11 10 10 12 13 11 11 11 11 10 10 10 10 10 10 10 10 11 11 11 11 11 11 11 11 11 11 11 11 11 12 12 12 12 12 12 12 12 12 12 12 11 11 11 11
11 11 12 12 11 11 11 12 13 11 11 11 10 10 10 10 10 10 10 10 10 10 10 10 10 10 11 11 11 11 11 11 11 11 11 11 12 11 11 12 12 12 11 11 11 11 11 11 11
12 12 11 12 12 11 11 11 12 11 11 11 10 10 10 10 9 10 10 10 10 10 10 10 10 10 10 10 10 10 11 11 10 10 11 11 11 11 11 11 11 11 11 11 11 11 11 11 10
11 11 11 12 11 11 11 11 12 11 10 11 10 10 10 10 9 9 9 9 9 9 9 10 10 10 10 10 10 10 10 10 10 10 10 10 11 11 11 11 11 11 11 11 10 10 10 10 10
10 10 11 11 11 10 11 11 12 11 11 10 10 10 10 9 9 9 9 9 9 9 9 9 9 9 9 9 9 10 10 10 10 10 10 10 10 10 10 10 10 10 10 10 10 10 10 10 9
10 10 11 11 11 10 10 12 12 12 11 10 10 10 10 9 9 9 9 9 9 9 9 9 9 9 9 9 9 9 9 9 10 9 10 10 10 10 10 10 10 10 10 10 10 10 10 9 9
11 11 10 10 10 11 10 11 13 12 12 11 11 10 10 9 9 9 9 9 9 9 9 9 9 9 9 9 9 9 9 9 9 9 9 9 9 9 9 9 9 9 9 9 9 9 9 9 9
11 10 10 10 10 10 10 10 13 12 12 12 12 11 10 9 9 9 9 9 9 9 9 9 9 9 9 9 9 9 9 9 9 9 9 9 9 9 9 9 9 9 9 9 9 9 9 9 9
9 9 10 9 10 10 11 11 12 13 12 12 12 11 10 9 9 8 8 8 8 8 8 8 8 8 9 9 8 8 8 8 9 9 8 8 9 9 8 8 9 9 9 9 9 9 9 9 8
10 11 11 11 11 12 10 10 12 13 12 12 11 11 10 9 8 8 8 8 8 8 8 8 8 8 8 8 8 8 8 8 8 8 8 8 8 8 8 8 8 8 8 8 8 8 8 8 8
10 11 11 11 12 13 10 11 13 12 10 10 9 9 9 9 9 8 8 8 8 8 8 8 8 8 8 8 8 8 8 8 8 8 8 8 8 8 8 8 8 8 8 8 8 8 8 8 8
10 10 10 10 10 10 12 12 12 11 10 10 10 9 9 8 8 8 8 8 8 8 8 8 8 8 8 8 8 8 8 8 7 7 7 7 7 7 7 7 7 7 7 7 7 7 7 7 7
9 10 9 10 10 11 13 12 12 12 11 10 10 10 9 8 8 7 8 7 8 8 8 7 7 7 7 7 7 7 7 7 7 7 7 7 7 7 7 7 7 7 7 7 7 7 7 7 7
8 8 9 10 10 11 12 13 12 12 11 10 10 9 8 8 7 7 7 7 7 7 7 7 7 7 7 7 7 7 7 7 6 6 7 7 7 7 6 6 6 6 6 6 6 6 6 6 6
9 10 10 10 10 10 11 12 12 11 10 9 9 8 7 7 7 7 7 7 7 7 7 7 7 7 7 7 7 7 6 6 6 6 6 6 6 6 6 6 6 6 6 6 6 6 6 6 6
Wind_Speed
7 4 2 2 4 4 10 8 6 5 4 2 2 4 4 5 3 1 3 2 3 5 7 9 8 8 7 7 7 8 8 9 8 9 9 9 9 8 8 7 7 7 6 6 6 7 7 7 7
5 3 2 3 5 9 8 9 9 7 2 1 3 4 5 4 1 2 2 1 3 5 7 8 8 8 8 7 8 8 8 9 8 8 8 8 8 8 7 7 7 6 6 6 7 6 6 6 6
2 2 2 3 6 10 8 6 7 5 3 3 3 3 4 3 0 1 2 1 4 5 6 8 8 8 8 8 8 8 8 8 8 8 7 8 8 8 7 7 6 6 6 6 6 7 6 6 6
1 1 1 4 10 9 6 4 3 4 4 4 4 3 2 1 1 2 1 2 4 5 6 8 9 8 8 8 8 8 8 8 8 8 7 7 7 7 7 6 6 6 6 6 6 7 7 6 6
0 2 4 6 10 7 6 5 4 6 5 4 4 5 4 1 1 1 0 2 4 5 6 8 9 8 8 8 8 8 8 8 8 8 8 7 7 7 7 6 6 6 6 6 7 7 6 6 6
2 2 5 8 9 7 6 6 6 8 7 5 4 6 4 1 0 1 0 2 3 4 5 7 8 9 8 8 8 7 8 8 8 8 8 8 7 6 6 6 6 6 6 6 7 7 7 6 5
2 3 5 7 7 8 5 5 7 8 9 7 4 5 4 2 0 1 1 2 3 4 4 5 8 9 8 9 9 8 8 7 7 7 8 8 8 7 6 6 6 5 5 6 6 6 6 6 5
0 2 5 6 8 8 4 4 5 7 8 4 5 6 5 2 1 1 2 2 3 3 4 4 6 8 8 8 8 9 8 8 7 7 8 8 8 7 6 6 6 6 5 5 6 6 6 5 5
1 3 6 7 7 5 4 5 5 5 7 6 6 7 6 2 2 3 2 2 3 3 3 4 4 6 7 7 8 9 9 8 8 8 8 7 7 6 6 5 6 6 5 6 6 6 6 5 5
2 4 6 4 5 5 5 6 6 5 9 9 8 7 7 6 5 5 5 5 5 5 4 4 4 4 6 6 7 7 7 8 7 6 6 5 5 5 5 7 6 6 5 6 6 6 5 4 4
2 5 5 5 6 7 8 8 7 9 11 11 9 8 7 7 7 7 7 7 6 6 4 4 5 4 5 4 5 5 6 6 6 6 6 4 4 4 5 5 5 5 4 4 5 4 3 3 3
4 6 6 6 6 7 9 8 9 12 13 10 9 8 8 8 9 9 8 8 6 6 6 4 5 4 4 5 5 5 5 5 5 6 6 5 3 3 3 3 4 3 3 3 2 2 3 3 3
6 6 6 8 9 9 10 12 12 14 14 11 11 10 10 10 10 9 8 7 7 6 6 5 4 5 4 4 4 4 4 5 5 5 5 5 3 3 3 3 3 3 3 3 3 3 3 3 3
4 6 8 8 9 8 9 12 10 13 10 10 10 10 10 10 9 9 8 8 8 7 7 6 5 5 4 4 4 4 4 4 5 5 5 5 4 3 3 3 3 3 3 3 3 3 3 3 3
4 6 7 7 7 5 6 10 11 12 9 9 10 10 9 8 8 8 8 8 8 7 6 6 6 5 5 4 5 4 4 5 4 5 5 5 4 4 3 3 3 3 4 4 3 3 3 3 3
3 4 5 4 4 4 5 11 7 6 8 10 10 9 8 8 8 7 7 7 7 6 6 6 5 5 5 4 4 4 4 4 4 4 5 5 5 4 3 3 2 4 4 4 3 3 3 2 2
3 5 8 7 4 4 6 11 8 6 8 10 9 9 8 8 7 7 6 6 6 6 6 6 5 5 4 4 3 4 4 4 4 4 4 5 5 4 3 3 3 4 4 4 4 3 3 3 2
5 6 8 9 5 7 10 14 12 10 10 10 10 9 9 8 7 6 5 5 5 5 5 6 6 5 4 3 3 4 4 3 3 3 4 5 5 5 4 3 3 3 3 4 4 4 3 3 2
7 8 11 11 8 8 13 16 14 11 10 11 10 9 9 8 6 4 4 5 5 5 6 6 6 6 4 3 3 4 4 4 3 3 4 5 5 5 4 3 3 3 3 4 5 4 4 3 2
9 10 11 9 5 7 12 15 13 10 11 10 11 9 9 7 5 4 4 5 6 6 6 7 6 6 6 4 3 2 4 3 3 3 3 4 4 4 4 4 3 3 3 4 5 5 4 3 2
10 11 11 9 9 6 8 10 8 7 8 9 10 9 8 8 6 5 5 6 6 7 8 7 7 7 6 5 3 2 3 3 2 3 3 3 4 4 4 4 4 3 3 4 5 6 5 4 3
9 8 9 9 8 5 4 6 7 6 6 8 9 9 8 7 7 6 6 6 7 7 7 7 7 7 6 6 6 6 5 4 4 4 3 3 4 4 4 4 4 4 3 4 5 6 5 6 5
6 4 7 8 7 7 6 6 7 4 6 7 8 8 8 7 7 7 7 7 7 7 7 7 7 7 7 7 7 7 5 4 4 4 4 4 3 3 4 4 4 4 3 4 4 5 6 5 5
5 3 4 5 4 6 6 6 7 4 6 6 7 7 7 6 6 6 6 6 6 6 7 7 7 7 7 7 7 7 7 6 5 5 5 4 3 3 4 4 4 4 3 4 4 4 6 5 6
5 3 3 3 4 5 2 6 8 5 5 7 7 7 6 6 7 7 7 6 7 7 7 7 8 7 7 7 7 7 7 7 7 6 6 5 4 3 4 4 4 3 3 3 4 4 5 6 6
6 5 4 4 5 5 3 7 6 4 5 5 6 6 6 6 7 7 8 7 7 7 7 7 8 8 7 7 7 6 6 5 5 6 5 5 4 4 5 4 4 4 4 4 4 3 4 4 5
5 6 4 4 5 6 6 6 7 4 4 4 4 4 5 5 6 7 7 7 7 7 7 8 8 8 8 7 7 6 6 5 5 5 5 4 4 3 5 4 4 4 4 4 4 3 4 4 4
4 4 4 4 4 6 7 6 4 3 3 3 3 3 3 3 5 6 7 7 6 6 7 7 7 7 7 7 6 5 5 5 5 5 5 5 4 4 4 4 4 4 4 4 4 4 4 4 4
7 6 5 4 5 5 6 5 2 3 3 3 3 3 3 3 5 5 5 6 5 5 6 7 7 7 7 7 6 6 5 5 5 5 5 5 4 4 5 5 5 5 5 4 4 4 4 5 5
7 8 8 6 6 6 6 6 1 2 2 3 3 3 2 2 3 4 5 5 6 6 6 6 6 6 7 6 6 6 5 5 5 5 5 5 5 5 5 5 5 5 5 4 5 5 5 5 5
Wind_Direction
334 326 284 218 201 214 231 220 215 205 208 228 237 234 238 235 243 9 52 96 134 152 156 160 157 154 151 147 147 140 144 145 144 142 139 135 133 129 127 125 121 115 111 108 107 106 104 104 105
334 317 222 209 223 223 226 218 214 214 212 240 228 235 237 232 310 25 58 89 155 157 159 163 157 156 156 152 150 145 141 144 146 145 140 136 133 129 126 127 124 118 112 108 102 102 103 103 104
329 334 213 203 223 230 221 197 215 217 226 225 224 239 247 243 153 36 28 169 169 161 163 158 156 158 160 158 155 150 144 143 144 143 141 138 136 133 129 122 122 119 115 113 107 103 102 105 104
271 171 197 223 227 232 239 207 207 214 213 230 236 232 219 323 338 2 37 174 171 166 166 158 157 159 161 160 157 155 150 145 140 140 139 140 141 137 131 126 118 118 118 116 111 104 100 99 101
332 195 207 228 238 235 236 241 232 235 227 223 235 243 237 171 334 13 119 181 178 175 171 165 162 161 159 159 163 159 155 150 145 145 145 140 142 140 134 129 124 120 120 121 116 109 104 100 99
161 205 222 234 237 235 237 238 241 248 243 239 242 249 244 190 275 323 225 201 188 181 180 172 166 164 163 160 160 163 159 152 148 147 149 144 134 130 126 125 126 124 121 123 119 115 106 101 101
199 211 237 245 250 246 240 239 239 247 246 241 240 244 229 210 291 271 222 209 195 184 182 176 179 172 168 162 161 161 158 153 147 142 141 139 135 132 124 117 114 117 117 121 120 113 107 101 97
194 206 232 239 245 250 239 237 246 253 256 253 241 241 237 227 271 251 216 204 200 189 184 178 182 178 177 171 159 153 150 147 141 133 127 128 131 131 129 126 115 112 110 116 120 114 110 104 98
198 218 236 238 244 248 225 242 256 263 254 246 243 256 269 254 250 240 234 226 217 204 191 179 182 181 178 174 158 151 144 141 137 131 127 136 148 148 147 120 114 116 111 109 116 119 117 118 109
206 229 242 248 252 259 250 257 262 258 254 250 245 253 255 253 246 238 235 229 223 216 207 193 190 182 178 171 163 164 159 154 155 150 153 156 148 146 137 117 112 116 116 114 111 123 138 155 132
211 237 253 257 259 261 260 260 254 252 255 251 254 260 256 254 250 241 240 234 226 217 210 205 191 182 175 166 165 164 164 162 159 154 156 153 146 146 151 147 138 135 144 136 133 143 141 138 130
229 246 254 262 266 261 261 261 253 247 253 267 271 268 260 255 252 245 241 240 231 220 211 205 198 181 169 168 165 163 160 162 156 156 157 157 151 156 155 158 155 153 147 146 149 138 134 132 138
238 254 261 265 268 264 264 258 260 259 257 265 266 260 253 249 251 249 244 240 234 224 213 202 192 186 166 167 165 161 160 161 155 154 162 163 160 160 151 152 157 156 148 152 145 144 140 133 120
258 268 273 272 270 264 259 265 255 256 254 254 251 253 253 249 250 250 243 235 230 223 215 203 186 181 168 166 164 162 161 156 155 153 157 163 162 160 156 147 160 155 154 151 154 148 148 139 130
266 277 277 261 262 260 261 262 242 250 245 246 250 253 253 251 250 247 243 235 228 222 213 203 187 176 166 159 164 159 157 150 150 149 153 157 157 157 157 150 162 161 162 153 148 144 138 138 138
249 263 274 266 257 248 248 269 263 247 237 247 254 255 253 251 248 245 242 237 227 219 206 196 188 177 172 158 161 156 155 150 147 151 153 154 150 153 153 155 155 162 162 156 153 158 146 143 146
234 262 273 286 260 259 246 271 279 263 250 250 254 256 253 249 246 240 232 226 222 217 198 185 181 175 173 156 153 154 150 146 147 154 156 154 151 155 153 153 147 163 167 164 162 162 157 153 151
259 271 275 278 284 268 265 271 277 272 261 255 253 253 252 247 243 235 219 207 205 209 195 183 172 161 160 148 142 146 139 141 144 153 159 158 157 161 155 148 157 162 172 169 166 159 155 152 150
262 266 275 279 288 281 273 276 278 272 258 254 251 247 244 243 236 222 206 194 188 191 188 181 174 158 151 156 160 165 157 154 156 155 159 165 166 164 159 152 163 170 178 177 171 161 156 150 151
246 262 274 283 285 284 283 281 278 263 249 248 248 242 236 234 223 217 206 189 186 189 186 176 179 172 169 169 172 188 159 160 156 153 161 170 174 171 164 166 172 178 174 179 175 167 166 168 181
242 248 265 282 305 276 286 282 263 251 241 241 242 240 234 226 221 220 211 193 189 194 194 181 179 180 173 166 152 144 132 134 149 168 176 185 183 180 178 178 178 179 180 183 186 182 183 180 184
253 247 257 273 288 287 295 293 280 259 247 238 234 232 228 220 215 216 213 198 193 197 197 188 180 179 172 169 169 173 180 177 184 182 181 181 184 185 186 184 181 181 187 190 197 194 195 191 190
246 261 252 260 267 275 256 259 277 257 255 245 234 227 219 215 211 212 209 201 196 193 195 190 184 180 174 178 181 182 189 179 166 170 174 176 180 184 186 189 187 189 192 196 203 201 199 202 201
239 256 247 234 240 257 246 241 274 254 251 248 236 227 220 209 206 209 203 195 193 189 188 187 186 185 179 177 185 185 183 173 164 175 179 180 183 188 194 197 196 196 194 197 205 206 206 208 208
215 243 271 249 235 253 213 239 258 272 265 257 250 236 228 215 208 202 195 193 189 184 185 186 183 183 179 179 189 186 182 180 180 183 186 185 188 194 201 204 206 204 203 203 204 207 210 212 210
207 222 240 270 273 281 234 245 265 290 284 268 252 237 225 216 209 206 200 194 189 183 186 185 186 182 179 183 187 186 182 185 190 190 188 193 197 200 199 207 212 209 203 204 207 211 214 212 217
201 211 239 258 275 273 258 262 279 271 276 255 230 214 214 213 210 208 201 194 191 183 188 191 186 182 181 183 181 185 185 186 189 193 192 194 197 197 197 203 206 206 206 209 207 214 215 214 217
236 187 188 219 259 270 273 265 270 268 268 262 247 230 223 220 215 210 202 195 191 184 185 188 187 185 184 182 182 184 188 187 188 193 198 199 197 194 198 203 208 207 208 210 213 217 218 219 220
183 193 210 222 247 261 278 274 249 250 269 266 265 254 234 228 217 210 204 196 191 184 183 183 184 184 184 185 186 184 183 188 193 197 202 201 199 196 200 206 208 210 211 211 217 223 219 223 227
215 213 201 221 235 237 263 273 55 256 285 279 283 288 268 244 222 209 199 193 192 190 190 186 187 188 188 187 187 187 180 191 197 199 201 200 202 203 205 208 211 214 217 220 224 228 226 227 231
Height
1520 1521 1522 1525 1524 1521 1516 1515 1516 1517 1519 1520 1521 1521 1518 1517 1518 1523 1523 1520 1520 1521 1522 1523 1524 1526 1527 1528 1529 1530 1531 1531 1532 1533 1534 1534 1535 1535 1536 1536 1536 1536 1536 1537 1537 1537 1537 1538 1538
1521 1521 1524 1524 1518 1516 1515 1513 1516 1517 1519 1521 1522 1521 1520 1519 1521 1521 1519 1519 1520 1521 1522 1523 1524 1525 1526 1527 1528 1529 1530 1531 1532 1533 1534 1534 1535 1535 1535 1536 1536 1536 1536 1537 1537 1537 1537 1538 1538
1521 1522 1524 1521 1516 1510 1510 1514 1515 1518 1521 1521 1521 1521 1520 1520 1520 1520 1519 1518 1519 1520 1521 1522 1523 1524 1526 1527 1528 1529 1530 1531 1532 1532 1533 1534 1534 1535 1535 1535 1536 1536 1536 1536 1536 1537 1537 1537 1538
1521 1524 1524 1520 1515 1512 1513 1515 1518 1519 1520 1521 1520 1519 1520 1520 1519 1518 1517 1518 1519 1520 1521 1521 1522 1524 1525 1526 1527 1528 1529 1530 1531 1532 1532 1533 1534 1534 1535 1535 1535 1536 1536 1536 1536 1536 1537 1537 1537
1521 1523 1520 1518 1514 1514 1517 1519 1520 1518 1518 1519 1520 1517 1518 1518 1517 1517 1517 1517 1518 1519 1520 1521 1521 1523 1524 1525 1526 1527 1528 1529 1530 1531 1531 1532 1533 1534 1534 1534 1535 1535 1535 1536 1536 1536 1536 1537 1537
1523 1521 1518 1514 1513 1515 1518 1520 1520 1518 1517 1519 1519 1517 1516 1517 1516 1516 1516 1517 1518 1518 1519 1520 1521 1522 1523 1524 1525 1526 1527 1528 1529 1530 1531 1531 1532 1533 1533 1534 1534 1535 1535 1535 1535 1536 1536 1536 1536
1523 1520 1516 1514 1515 1515 1517 1519 1519 1517 1516 1517 1518 1516 1515 1515 1515 1515 1515 1516 1517 1517 1517 1518 1519 1520 1521 1522 1523 1524 1526 1526 1528 1529 1530 1530 1531 1532 1532 1533 1533 1534 1535 1535 1535 1535 1535 1536 1536
1522 1522 1519 1517 1516 1515 1518 1519 1518 1517 1516 1517 1517 1514 1513 1514 1513 1513 1514 1514 1515 1515 1516 1517 1518 1519 1519 1520 1522 1523 1524 1525 1526 1527 1528 1529 1530 1531 1531 1532 1532 1533 1534 1534 1534 1535 1535 1535 1535
1522 1522 1516 1515 1516 1515 1517 1518 1517 1517 1516 1515 1514 1513 1512 1512 1511 1512 1512 1512 1513 1513 1514 1514 1515 1517 1518 1519 1520 1521 1522 1524 1525 1526 1527 1528 1529 1529 1530 1531 1531 1532 1533 1533 1534 1534 1534 1535 1535
1522 1518 1514 1516 1516 1516 1516 1516 1516 1515 1512 1511 1511 1510 1510 1510 1510 1510 1509 1509 1510 1510 1511 1512 1513 1514 1516 1517 1518 1520 1521 1522 1523 1524 1525 1526 1527 1528 1529 1529 1530 1531 1532 1533 1533 1533 1534 1534 1535
1520 1517 1516 1517 1517 1516 1515 1515 1514 1513 1508 1507 1508 1508 1508 1508 1508 1507 1507 1507 1508 1508 1509 1510 1511 1512 1513 1515 1516 1517 1519 1520 1521 1523 1524 1525 1526 1526 1527 1528 1529 1530 1531 1532 1532 1532 1533 1533 1534
1519 1517 1517 1516 1516 1515 1514 1512 1511 1509 1506 1505 1506 1505 1505 1505 1505 1504 1504 1505 1505 1506 1506 1507 1508 1510 1511 1512 1514 1515 1517 1518 1519 1521 1522 1523 1524 1525 1526 1526 1527 1529 1530 1530 1531 1531 1532 1532 1533
1517 1516 1516 1515 1514 1513 1512 1509 1507 1503 1502 1503 1503 1502 1502 1501 1501 1501 1501 1502 1502 1503 1504 1504 1505 1507 1508 1509 1511 1513 1515 1516 1517 1519 1520 1522 1522 1523 1524 1525 1526 1527 1528 1529 1529 1530 1530 1531 1531
1516 1515 1514 1512 1511 1510 1509 1505 1504 1497 1499 1499 1499 1499 1498 1498 1498 1498 1497 1498 1498 1499 1500 1502 1503 1504 1506 1507 1509 1511 1512 1514 1515 1517 1518 1520 1521 1521 1522 1523 1524 1525 1526 1527 1528 1529 1529 1530 1530
1516 1514 1510 1508 1508 1507 1506 1500 1497 1495 1496 1496 1495 1495 1495 1494 1494 1494 1493 1494 1495 1496 1497 1498 1500 1501 1503 1505 1507 1508 1510 1512 1513 1515 1516 1518 1519 1520 1521 1521 1522 1523 1524 1525 1526 1527 1528 1528 1529
1514 1510 1506 1503 1504 1504 1506 1493 1490 1492 1492 1492 1491 1491 1491 1490 1490 1490 1490 1491 1492 1493 1494 1496 1498 1499 1500 1502 1504 1506 1508 1510 1511 1513 1514 1516 1517 1518 1519 1520 1520 1521 1522 1523 1524 1525 1526 1527 1527
1509 1506 1502 1500 1501 1501 1500 1490 1488 1489 1489 1488 1487 1487 1487 1487 1486 1486 1487 1487 1488 1490 1491 1493 1495 1496 1498 1500 1501 1503 1506 1508 1510 1511 1512 1513 1515 1516 1517 1518 1518 1519 1520 1521 1522 1523 1525 1525 1526
1504 1503 1501 1499 1498 1499 1495 1488 1486 1486 1485 1483 1483 1483 1483 1482 1482 1483 1483 1484 1485 1486 1488 1490 1492 1494 1495 1496 1498 1500 1503 1506 1508 1509 1510 1512 1513 1514 1514 1515 1516 1517 1518 1519 1520 1521 1522 1523 1524
1505 1504 1500 1496 1497 1497 1489 1484 1481 1481 1480 1479 1478 1478 1479 1479 1479 1480 1480 1481 1482 1484 1485 1487 1489 1490 1493 1494 1496 1497 1500 1503 1505 1507 1509 1510 1510 1511 1512 1513 1514 1515 1516 1517 1518 1519 1520 1521 1522
1506 1503 1498 1495 1495 1494 1487 1481 1476 1476 1475 1475 1474 1474 1474 1475 1476 1477 1477 1478 1479 1481 1482 1484 1486 1488 1490 1492 1494 1496 1498 1500 1503 1505 1506 1507 1508 1509 1510 1510 1511 1513 1514 1515 1516 1516 1517 1518 1519
1501 1500 1495 1495 1493 1491 1488 1475 1470 1469 1471 1471 1471 1471 1471 1472 1472 1473 1475 1475 1477 1479 1480 1481 1483 1486 1488 1490 1492 1494 1495 1497 1500 1502 1503 1505 1506 1507 1508 1508 1509 1510 1511 1512 1513 1514 1515 1516 1517
1496 1495 1496 1496 1494 1488 1488 1478 1463 1464 1465 1466 1467 1467 1468 1468 1469 1470 1472 1473 1474 1476 1478 1479 1481 1483 1485 1487 1489 1491 1492 1494 1496 1499 1501 1502 1503 1504 1505 1506 1507 1508 1508 1509 1510 1511 1512 1513 1514
1494 1495 1495 1494 1493 1490 1484 1483 1462 1461 1461 1461 1462 1463 1464 1465 1466 1467 1469 1470 1472 1474 1475 1476 1479 1481 1483 1484 1487 1488 1490 1492 1494 1497 1498 1500 1501 1502 1503 1504 1504 1505 1506 1507 1507 1508 1509 1510 1511
1495 1495 1493 1492 1490 1485 1477 1478 1461 1456 1457 1457 1459 1460 1461 1462 1464 1465 1466 1468 1470 1471 1473 1474 1476 1478 1480 1482 1485 1485 1487 1489 1491 1494 1496 1497 1498 1499 1500 1501 1501 1502 1503 1504 1505 1505 1506 1506 1507
1493 1490 1486 1482 1479 1471 1476 1475 1460 1453 1455 1456 1456 1457 1458 1460 1461 1462 1463 1465 1467 1468 1470 1471 1473 1475 1477 1480 1482 1483 1484 1486 1488 1491 1492 1493 1494 1496 1497 1498 1499 1499 1500 1501 1502 1502 1502 1503 1504
1488 1487 1485 1482 1472 1464 1474 1468 1453 1454 1455 1455 1455 1455 1456 1457 1458 1459 1460 1462 1464 1465 1467 1469 1471 1473 1475 1477 1479 1480 1482 1483 1486 1488 1489 1490 1492 1493 1494 1495 1496 1496 1497 1498 1498 1499 1499 1500 1500
1485 1485 1485 1484 1482 1478 1461 1458 1452 1452 1452 1453 1453 1453 1453 1454 1455 1456 1458 1459 1461 1462 1465 1467 1468 1471 1473 1475 1475 1477 1479 1481 1483 1485 1486 1488 1489 1490 1491 1492 1493 1493 1494 1495 1495 1495 1496 1496 1497
1485 1484 1487 1484 1479 1468 1456 1454 1450 1448 1448 1450 1450 1451 1452 1452 1453 1454 1455 1456 1458 1460 1462 1464 1466 1468 1470 1471 1473 1474 1476 1478 1480 1482 1483 1484 1486 1487 1488 1489 1490 1490 1491 1491 1491 1492 1492 1493 1493
1483 1485 1481 1478 1476 1469 1459 1450 1446 1446 1447 1448 1449 1449 1450 1450 1451 1452 1453 1454 1456 1458 1460 1462 1464 1465 1467 1469 1470 1472 1473 1475 1477 1479 1480 1481 1482 1484 1484 1485 1486 1486 1487 1487 1488 1488 1488 1489 1489
1476 1474 1475 1475 1472 1471 1463 1453 1447 1448 1449 1449 1449 1448 1448 1449 1449 1450 1451 1453 1454 1455 1457 1459 1461 1463 1465 1466 1468 1469 1471 1473 1474 1476 1477 1478 1479 1480 1481 1482 1482 1483 1483 1484 1484 1484 1484 1485 1485